Wind_Speed
14 14 12 16 17 10 10 8 8 9 9 10 11 13 13 12 14 13 13 13 10 12 15 13 13 15 15 11 17 19 23 22 17 16 13 29 28 18 32 20 23 27 23
14 9 12 15 9 11 7 9 9 9 9 8 13 12 12 12 11 13 13 12 11 10 11 14 16 15 13 13 9 6 7 10 20 22 20 25 23 25 21 24 23 24 22
11 9 11 6 11 10 12 11 10 8 8 9 12 12 10 12 11 13 12 11 13 8 10 13 15 16 15 13 14 14 10 16 21 20 19 19 22 22 23 20 20 23 20
8 8 8 9 8 10 12 14 10 6 6 7 9 12 11 12 10 12 12 13 12 5 18 17 14 13 18 15 12 15 14 22 21 15 19 21 15 25 18 17 18 22 19
6 6 4 8 10 8 5 7 9 5 6 6 8 11 9 9 14 14 11 14 14 8 11 11 11 14 18 12 12 14 19 24 20 20 21 16 20 21 19 15 21 23 18
6 5 5 4 4 7 6 8 9 7 6 4 8 9 12 10 12 13 13 15 13 11 9 9 10 13 15 12 13 12 14 17 15 12 15 17 17 17 16 20 22 22 16
7 6 9 11 10 10 10 9 10 15 12 8 4 7 11 12 12 13 12 18 15 11 9 7 9 11 13 12 12 12 13 16 16 12 15 16 17 23 23 24 23 20 19
7 8 10 13 12 12 11 12 13 11 13 12 13 6 12 11 14 15 13 15 16 14 11 9 11 12 9 7 12 11 13 16 18 17 20 16 22 21 25 25 22 18 12
7 7 10 11 11 12 12 14 15 13 15 15 14 9 15 16 17 17 15 12 12 11 11 12 10 9 5 11 13 14 15 12 21 23 21 22 19 22 20 18 12 8 9
8 10 12 11 11 13 12 15 17 18 19 16 16 19 17 20 20 19 17 14 12 11 12 13 7 8 11 11 16 20 21 21 19 18 20 23 18 15 14 9 8 9 11
8 9 11 11 11 13 12 14 18 18 21 23 24 28 22 19 17 16 11 10 9 11 16 11 11 17 23 23 24 21 20 22 23 20 16 13 10 10 8 7 8 10 12
6 6 7 8 9 10 12 11 14 18 18 20 23 26 29 33 33 22 20 19 17 23 25 24 27 24 19 19 24 23 22 17 16 13 11 8 6 5 5 7 10 12 14
7 5 5 7 9 12 13 13 13 15 18 19 20 21 22 23 26 26 22 22 26 26 25 24 24 22 21 21 20 17 13 10 7 7 5 3 1 4 7 11 14 17 19
9 7 6 7 10 13 14 16 16 17 20 22 21 21 21 21 20 19 19 20 18 18 17 16 15 13 12 10 9 9 8 8 5 3 2 4 7 9 11 13 16 19 22
10 9 8 8 9 12 13 15 19 19 19 19 20 19 18 19 19 18 17 17 16 15 14 13 12 11 11 9 9 8 7 6 5 5 4 5 7 10 14 18 23 26 28
11 11 10 10 10 11 11 11 12 13 13 13 13 13 13 12 10 10 10 10 9 8 7 7 6 5 4 3 3 2 1 2 3 4 5 8 12 17 21 22 22 29 31
12 11 12 11 11 11 11 11 9 8 7 7 7 7 7 8 7 8 9 9 8 5 3 2 0 0 1 1 1 1 2 4 5 7 9 12 15 17 19 25 29 30 29
16 14 13 14 14 12 12 11 10 10 9 7 4 3 1 2 2 1 1 1 2 2 2 3 4 4 2 1 0 1 4 7 9 12 14 17 21 23 27 31 34 36 34
17 17 16 16 15 15 14 13 13 12 11 10 9 8 7 6 5 5 5 5 5 6 7 7 6 6 6 7 7 8 9 12 15 17 18 20 23 26 28 34 36 37 33
21 20 20 20 19 17 17 17 16 15 14 13 13 13 11 11 10 9 9 9 10 10 10 9 8 7 8 11 13 16 17 17 18 21 23 25 27 31 33 29 31 33 35
21 23 24 22 21 20 20 20 21 20 19 18 18 16 15 13 12 13 13 14 14 14 15 14 13 13 15 17 18 19 20 22 25 26 27 29 29 30 31 32 30 33 35
22 22 23 25 25 25 23 24 23 23 21 21 22 21 21 17 17 18 19 19 19 20 20 20 21 21 22 21 22 23 25 26 27 28 28 28 29 31 34 35 35 36 39
24 25 24 24 25 27 27 27 26 26 25 25 25 24 24 24 24 23 22 23 24 24 23 22 23 24 26 26 25 25 26 26 27 28 29 32 32 34 37 37 37 39 41
28 27 26 27 27 27 28 28 28 28 28 29 28 27 25 26 25 26 26 25 24 23 23 25 26 27 26 26 27 27 28 30 31 31 32 35 36 38 40 40 42 44 45
31 32 32 31 31 30 31 33 32 32 31 31 31 30 30 30 30 30 30 30 29 29 28 28 28 28 28 28 30 31 33 33 35 36 37 38 38 39 41 42 46 48 44
37 37 37 36 36 37 37 37 36 37 36 35 34 34 35 35 33 33 33 33 32 31 30 29 28 29 30 32 34 35 35 38 39 38 39 39 40 41 42 44 45 48 48
Wind_Direction
341 343 334 338 337 6 6 17 37 53 62 91 115 126 136 131 140 144 150 155 158 113 134 141 161 156 149 182 203 187 190 205 204 194 167 171 173 189 182 207 197 197 202
342 343 342 347 43 23 35 51 50 64 74 102 117 126 134 143 143 149 151 156 161 155 156 140 124 157 178 160 144 165 180 154 159 167 155 166 177 197 189 177 175 184 196
356 354 3 42 70 42 60 52 49 66 91 108 127 134 143 152 157 152 151 144 141 162 99 103 115 132 131 128 144 144 154 157 163 151 155 160 168 171 174 172 173 181 183
3 11 52 70 82 62 77 59 47 51 81 124 148 149 147 154 157 156 139 152 144 128 91 114 106 113 119 116 142 154 163 156 158 168 153 162 184 178 185 174 175 176 179
10 26 75 79 75 71 79 42 37 47 63 142 151 174 173 154 157 157 146 160 156 135 117 122 110 115 119 118 127 152 155 168 151 158 167 154 176 179 177 179 176 181 184
29 45 60 69 93 75 89 74 53 57 16 9 174 161 175 161 161 169 170 167 162 148 133 134 133 135 141 133 128 140 165 161 177 155 168 167 163 175 180 175 183 186 201
50 59 80 82 86 73 82 85 67 52 61 77 128 174 165 175 169 162 166 173 168 152 147 136 137 143 135 141 139 138 171 187 175 178 169 174 177 184 191 191 191 196 185
74 69 81 81 77 73 72 71 67 84 82 64 58 152 182 165 166 156 158 163 163 166 164 154 139 131 141 157 156 161 154 164 173 165 163 185 170 178 184 192 211 202 141
97 93 88 81 82 77 74 79 78 81 79 71 51 88 162 155 153 156 151 152 161 156 155 148 138 146 182 169 177 168 158 155 149 168 175 182 191 180 186 152 107 156 198
107 95 88 85 86 83 79 80 81 79 77 84 73 78 128 145 134 137 136 142 149 157 160 170 161 146 155 152 150 147 152 162 170 172 180 182 172 126 95 124 172 210 233
116 103 94 89 86 84 85 85 89 86 83 82 86 87 102 132 136 146 143 147 158 177 181 155 138 137 141 144 140 137 137 124 106 103 104 113 137 157 171 194 221 241 253
136 114 94 86 93 95 94 92 96 97 93 89 87 90 94 94 95 110 107 103 122 124 109 107 98 105 118 119 109 95 101 114 132 141 144 149 161 186 229 249 259 270 278
154 144 112 90 98 103 100 103 102 99 101 98 94 92 91 96 100 107 110 101 100 99 100 106 110 109 111 115 121 126 131 133 140 148 154 152 182 257 272 278 284 286 287
151 153 138 115 116 116 112 109 105 102 100 98 95 92 92 94 97 102 106 108 107 108 112 114 115 119 123 132 136 131 129 129 136 136 185 239 256 265 276 289 296 301 305
156 154 152 146 140 137 127 123 121 114 105 101 97 93 92 96 100 103 103 103 106 107 108 110 115 123 130 135 138 145 151 159 183 207 240 282 300 300 294 298 305 305 302
176 168 167 164 161 162 155 149 143 135 124 114 102 91 85 91 106 112 111 107 104 101 101 104 109 118 131 141 143 151 171 208 240 263 277 290 301 309 318 319 322 321 314
197 192 176 176 175 177 182 182 177 172 161 143 122 100 87 74 91 105 105 101 98 96 109 115 116 326 360 339 260 239 251 264 279 289 299 307 314 326 331 331 322 320 315
206 206 206 192 193 189 192 197 202 199 202 210 210 204 164 71 81 162 211 315 343 332 341 281 270 270 272 214 197 286 288 289 299 309 309 312 314 311 314 316 321 319 307
217 215 216 220 211 207 208 207 210 217 218 220 227 239 246 260 267 264 249 264 285 283 282 295 284 265 259 251 260 278 286 289 296 302 307 309 313 317 312 316 316 315 309
222 223 223 225 228 223 216 219 225 227 230 232 235 240 246 259 265 266 273 285 287 283 280 274 275 280 290 291 290 293 301 306 302 297 300 305 312 321 318 315 317 324 306
231 227 227 229 229 238 233 228 226 229 234 238 243 247 247 253 258 259 261 265 274 286 292 277 271 283 296 296 297 301 298 294 299 304 307 312 317 318 311 317 321 323 321
238 236 234 232 230 234 235 233 233 234 239 245 249 251 251 249 254 257 264 271 272 278 283 281 277 277 285 287 285 290 294 300 304 302 303 306 306 308 309 311 311 314 316
241 240 239 242 240 236 234 236 238 239 242 247 251 250 247 249 252 251 254 261 268 274 277 280 277 277 281 286 289 293 300 302 299 299 300 297 297 301 306 305 307 312 312
241 238 238 239 243 243 242 242 240 238 239 242 250 250 245 245 245 250 254 259 261 259 269 277 279 278 277 281 288 294 297 296 297 295 295 294 295 300 303 305 310 311 313
241 245 245 241 239 241 245 246 243 241 241 245 249 249 249 248 251 251 251 257 260 261 268 272 274 276 278 282 286 290 293 292 291 294 294 293 295 299 305 306 306 309 309
244 243 246 246 248 248 246 246 246 245 243 242 245 246 248 251 252 255 255 255 259 261 262 265 269 274 278 283 287 288 288 289 290 290 291 295 299 301 303 303 307 309 310
Height
5726 5723 5719 5715 5712 5709 5706 5704 5701 5699 5696 5695 5696 5697 5699 5700 5701 5702 5704 5705 5705 5707 5708 5710 5711 5713 5717 5720 5722 5726 5730 5732 5734 5736 5740 5745 5750 5757 5763 5769 5774 5781 5785
5724 5721 5717 5714 5711 5710 5708 5705 5703 5701 5699 5698 5698 5699 5701 5702 5703 5705 5706 5708 5709 5711 5710 5711 5713 5716 5718 5721 5725 5727 5729 5731 5734 5738 5743 5746 5752 5759 5766 5770 5775 5780 5784
5723 5720 5716 5715 5712 5711 5709 5707 5705 5703 5702 5701 5702 5702 5704 5705 5706 5707 5709 5710 5711 5711 5711 5713 5715 5718 5721 5723 5726 5729 5731 5735 5739 5743 5747 5751 5757 5762 5767 5771 5775 5780 5784
5722 5719 5717 5715 5713 5713 5711 5709 5707 5705 5704 5703 5703 5705 5706 5707 5708 5709 5712 5713 5714 5713 5716 5718 5720 5722 5725 5728 5729 5732 5734 5738 5741 5745 5750 5755 5760 5763 5768 5772 5775 5780 5784
5721 5720 5718 5716 5714 5713 5712 5710 5708 5707 5705 5704 5704 5705 5707 5709 5710 5711 5713 5715 5717 5719 5720 5722 5723 5725 5727 5730 5733 5735 5737 5741 5745 5749 5753 5757 5761 5765 5769 5773 5777 5781 5785
5721 5720 5718 5716 5714 5713 5713 5711 5710 5709 5705 5704 5704 5705 5706 5709 5711 5713 5715 5717 5720 5722 5723 5726 5728 5730 5732 5733 5735 5738 5741 5745 5750 5753 5757 5760 5762 5765 5770 5774 5779 5782 5785
5722 5721 5719 5717 5716 5715 5714 5712 5711 5709 5705 5704 5704 5705 5707 5708 5711 5714 5716 5719 5722 5725 5726 5727 5729 5731 5734 5737 5738 5741 5744 5746 5750 5753 5758 5762 5765 5768 5772 5775 5778 5781 5783
5724 5723 5721 5720 5719 5718 5717 5715 5712 5711 5709 5707 5705 5705 5707 5710 5712 5715 5718 5721 5724 5727 5728 5730 5733 5735 5736 5738 5740 5743 5746 5748 5751 5754 5759 5763 5766 5769 5773 5775 5777 5779 5783
5726 5725 5723 5723 5722 5721 5720 5719 5716 5714 5712 5710 5707 5705 5707 5711 5713 5716 5720 5723 5725 5727 5730 5732 5734 5736 5738 5740 5742 5744 5746 5750 5753 5757 5761 5764 5767 5770 5773 5774 5779 5782 5784
5727 5727 5726 5725 5725 5724 5724 5723 5720 5718 5717 5714 5712 5708 5709 5714 5717 5720 5722 5725 5728 5730 5732 5734 5735 5736 5737 5739 5742 5745 5748 5752 5756 5759 5762 5765 5767 5769 5773 5778 5779 5782 5785
5729 5729 5729 5728 5728 5727 5727 5726 5725 5724 5723 5721 5718 5715 5714 5718 5721 5724 5727 5728 5730 5732 5734 5736 5737 5738 5741 5743 5745 5748 5751 5754 5758 5762 5766 5768 5772 5774 5776 5778 5779 5780 5779
5730 5730 5730 5730 5730 5730 5730 5729 5729 5729 5728 5728 5726 5725 5724 5724 5724 5727 5730 5731 5732 5734 5738 5739 5742 5745 5747 5749 5750 5754 5758 5761 5763 5766 5768 5769 5771 5773 5774 5776 5776 5776 5776
5730 5732 5732 5732 5733 5733 5732 5733 5733 5733 5733 5733 5733 5732 5732 5732 5732 5734 5737 5739 5740 5741 5743 5745 5747 5750 5752 5754 5756 5758 5761 5763 5765 5767 5768 5770 5771 5773 5774 5774 5774 5775 5774
5730 5732 5733 5734 5735 5736 5736 5736 5737 5737 5737 5738 5738 5739 5739 5739 5740 5741 5742 5744 5745 5747 5748 5750 5752 5754 5756 5758 5760 5761 5763 5764 5766 5767 5769 5770 5772 5773 5773 5773 5772 5770 5767
5730 5732 5733 5735 5736 5738 5739 5740 5741 5742 5743 5743 5743 5744 5745 5745 5746 5747 5748 5749 5750 5751 5753 5754 5756 5758 5759 5760 5761 5763 5765 5766 5767 5769 5769 5770 5769 5768 5768 5768 5765 5763 5760
5730 5732 5733 5735 5737 5739 5741 5742 5743 5744 5745 5746 5747 5748 5748 5749 5750 5750 5751 5752 5753 5754 5755 5757 5758 5759 5760 5762 5763 5764 5764 5765 5766 5767 5767 5767 5768 5767 5766 5764 5761 5758 5755
5729 5731 5733 5734 5736 5739 5741 5743 5744 5745 5747 5748 5749 5750 5751 5751 5752 5752 5753 5754 5755 5755 5756 5757 5758 5759 5760 5761 5763 5764 5764 5765 5766 5766 5766 5765 5764 5763 5762 5760 5757 5754 5751
5727 5730 5732 5733 5735 5737 5740 5742 5743 5745 5746 5748 5749 5750 5751 5752 5753 5753 5754 5755 5756 5756 5756 5757 5758 5759 5760 5761 5762 5763 5764 5764 5764 5764 5763 5762 5761 5759 5757 5754 5751 5747 5743
5725 5727 5729 5732 5733 5735 5737 5740 5742 5744 5745 5747 5748 5749 5750 5750 5751 5752 5753 5754 5755 5756 5756 5757 5757 5758 5758 5759 5760 5760 5760 5760 5759 5759 5758 5757 5755 5753 5751 5747 5744 5740 5735
5722 5724 5726 5728 5730 5732 5734 5737 5739 5742 5743 5745 5746 5747 5748 5750 5751 5752 5752 5753 5753 5754 5755 5755 5756 5756 5756 5756 5756 5756 5756 5756 5754 5751 5750 5749 5747 5746 5742 5739 5735 5731 5728
5717 5720 5722 5723 5726 5728 5731 5733 5734 5736 5739 5741 5742 5744 5745 5747 5749 5749 5750 5750 5750 5751 5753 5753 5754 5754 5753 5753 5753 5752 5751 5749 5748 5748 5745 5744 5742 5738 5735 5732 5728 5725 5721
5711 5714 5716 5719 5721 5723 5726 5727 5729 5732 5734 5736 5737 5739 5741 5742 5743 5744 5745 5746 5746 5746 5746 5748 5750 5750 5749 5748 5747 5747 5746 5745 5744 5742 5739 5738 5735 5732 5728 5725 5721 5717 5712
5703 5707 5710 5713 5715 5717 5719 5721 5724 5726 5728 5729 5731 5733 5735 5736 5736 5737 5738 5738 5739 5739 5740 5741 5741 5741 5741 5742 5743 5742 5741 5739 5736 5734 5733 5730 5727 5723 5720 5715 5711 5708 5703
5695 5698 5702 5705 5708 5711 5713 5715 5717 5718 5720 5722 5723 5725 5727 5728 5729 5730 5731 5731 5731 5732 5733 5733 5733 5733 5733 5733 5734 5734 5733 5730 5729 5727 5725 5721 5719 5717 5712 5708 5704 5698 5695
5687 5689 5692 5696 5699 5702 5704 5706 5708 5710 5712 5714 5716 5718 5719 5721 5722 5723 5723 5724 5724 5726 5726 5726 5726 5726 5726 5726 5725 5725 5724 5723 5719 5717 5714 5711 5709 5706 5703 5699 5694 5691 5684
5677 5680 5683 5686 5690 5693 5695 5697 5698 5700 5702 5704 5706 5708 5709 5711 5713 5714 5715 5716 5716 5716 5715 5716 5717 5718 5718 5717 5717 5716 5714 5712 5709 5705 5703 5702 5700 5697 5693 5689 5684 5680 5674